Tracking 19817 objects as of 19-Aug-2019
HD Live streaming from Space Station
objects crossing your sky now

BREEZE-M R/B

Track BREEZE-M R/B now!


NORAD ID: 42750
Int'l Code: 2017-032B
Perigee: 1,715.8 km
Apogee: 34,545.9 km
Inclination: 30.6 °
Period: 636.1 minutes
Semi major axis: 24501 km
RCS: Unknown
Launch date: June 8, 2017
Source: Commonwealth of Independent States (former USSR) (CIS)
Launch site: TYURATAM MISSILE AND SPACE COMPLEX (TTMTR)

Note: This is a ROCKET BODY
aabbcc
Your satellite tracking list
Your tracking list is empty




NASA's NSSDC Master Catalog

Two Line Element Set (TLE):
1 42750U 17032B   19230.26135875 -.00000013 +00000-0 +00000-0 0  9998
2 42750 030.6246 117.5334 6699505 321.1246 006.1895 02.26361993018171
Source of the keplerian elements: AFSPC